Weather History for Rutherfordton, NC

Change the Weather History Date:

Monday, August 12, 2013

  Actual Average (KAVL) Record (KAVL)
Temperature  
Mean Temperature 78 °F 74 °F  
Max Temperature 87 °F 83 °F 93 °F (1925)
Min Temperature 69 °F 64 °F 47 °F (1890)
Degree Days  
Heating Degree Days 0 0  
Month to date heating degree days 0  
Since 1 June heating degree days 14  
Since 1 July heating degree days 0  
Cooling Degree Days 13 8  
Month to date cooling degree days 107  
Year to date cooling degree days 617  
Since 1 June cooling degree days 559  
Growing Degree Days 28 (Base 50)    
Moisture  
Dew Point 71 °F    
Average Humidity 85    
Maximum Humidity 100    
Minimum Humidity 60    
Precipitation  
Precipitation 0.00 in 0.14 in 2.83 in (1911)
Month to date precipitation 1.71  
Year to date precipitation 28.92  
Snow  
Snow 0.00 in 0.00 in 0.00 in ()
Month to date snowfall 0.0  
Since 1 June snowfall 0.0  
Since 1 July snowfall 0.0  
Snow Depth -    
Sea Level Pressure  
Sea Level Pressure 30.08 in    
Wind  
Wind Speed 1 mph (West)    
Max Wind Speed 9 mph    
Max Gust Speed -    
Visibility 8 miles    
Events Fog , Rain , Thunderstorm    
T = Trace of Precipitation, MM = Missing Value Source: NWS Daily Summary

Daily Weather History Graph

Daily Weather History Graph

Search for Another Location

Airport:

Trip Planner

Search our weather history database for the weather conditions in past years. The results will help you decide how hot, cold, wet, or windy it might be!

Date:

Astronomy

Aug. 12, 2013 Rise Set
Actual Time 6:44 AM EDT 8:19 PM EDT
Civil Twilight 6:17 AM EDT 8:47 PM EDT
Nautical Twilight 5:45 AM EDT 9:19 PM EDT
Astronomical Twilight 5:10 AM EDT 9:53 PM EDT
Moon 12:19 PM EDT (8/12) 11:27 PM EDT (8/12)
Length of Visible Light 14h 29m
Length of Day
13h 34m
Waxing Crescent, 31% of the Moon is Illuminated
Aug 12
Waxing Crescent
Aug 14
First Quarter
Aug 20
Full
Aug 28
Last Quarter
Sep 5
New

Hourly Weather History & Observations

Time (EDT) Temp. Heat Index Dew Point Humidity Pressure Visibility Wind Dir Wind Speed Gust Speed Precip Events Conditions
12:15 AM 73.4 °F - 73.4 °F 100% 30.12 in 7.0 mi Calm Calm - N/A   Scattered Clouds
12:34 AM 73.4 °F - 71.6 °F 94% 30.12 in 3.0 mi Calm Calm - N/A   Scattered Clouds
12:54 AM 71.6 °F - 71.6 °F 100% 30.12 in 1.5 mi Calm Calm - N/A   Mostly Cloudy
1:14 AM 71.6 °F - 71.6 °F 100% 30.12 in 0.5 mi Calm Calm - N/A Fog Fog
1:34 AM 71.6 °F - 71.6 °F 100% 30.12 in 7.0 mi Calm Calm - N/A   Scattered Clouds
1:54 AM 71.6 °F - 71.6 °F 100% 30.11 in 1.2 mi Calm Calm - N/A   Scattered Clouds
2:14 AM 71.6 °F - 71.6 °F 100% 30.11 in 7.0 mi Calm Calm - N/A   Clear
2:34 AM 71.6 °F - 71.6 °F 100% 30.11 in 3.0 mi Calm Calm - N/A   Scattered Clouds
2:54 AM 71.6 °F - 69.8 °F 94% 30.10 in 1.8 mi Calm Calm - N/A   Scattered Clouds
3:14 AM 71.6 °F - 71.6 °F 100% 30.10 in 7.0 mi NNW 3.5 mph - N/A   Scattered Clouds
3:34 AM 71.6 °F - 71.6 °F 100% 30.10 in 10.0 mi Calm Calm - N/A   Clear
3:54 AM 69.8 °F - 69.8 °F 100% 30.09 in 5.0 mi Calm Calm - N/A   Clear
4:14 AM 69.8 °F - 69.8 °F 100% 30.10 in 5.0 mi Calm Calm - N/A   Clear
4:34 AM 69.8 °F - 69.8 °F 100% 30.10 in 5.0 mi West 6.9 mph - N/A   Clear
4:54 AM 69.8 °F - 69.8 °F 100% 30.10 in 4.0 mi WNW 4.6 mph - N/A   Clear
5:14 AM 69.8 °F - 69.8 °F 100% 30.10 in 10.0 mi Calm Calm - N/A   Clear
5:34 AM 71.6 °F - 69.8 °F 94% 30.11 in 10.0 mi NW 5.8 mph - N/A   Clear
5:54 AM 71.6 °F - 69.8 °F 94% 30.11 in 10.0 mi Calm Calm - N/A   Mostly Cloudy
6:14 AM 69.8 °F - 69.8 °F 100% 30.11 in 10.0 mi NNW 3.5 mph - N/A   Scattered Clouds
6:34 AM 69.8 °F - 69.8 °F 100% 30.11 in 4.0 mi Calm Calm - N/A   Clear
6:55 AM 69.6 °F - 68.7 °F 97% 30.12 in 7.0 mi Calm Calm - N/A   Clear
7:15 AM 69.8 °F - 68.4 °F 95% 30.11 in 5.0 mi NW 3.5 mph - N/A   Clear
7:35 AM 69.6 °F - 68.9 °F 98% 30.12 in 5.0 mi West 9.2 mph - N/A   Clear
7:55 AM 70.7 °F - 69.3 °F 95% 30.12 in 7.0 mi Calm Calm - N/A   Clear
8:15 AM 72.7 °F - 69.6 °F 90% 30.11 in 10.0 mi Calm Calm - N/A   Clear
8:35 AM 73.6 °F - 70.5 °F 90% 30.11 in 10.0 mi Calm Calm - N/A   Clear
8:55 AM 75.4 °F - 70.3 °F 84% 30.11 in 10.0 mi Calm Calm - N/A   Clear
9:15 AM 76.1 °F - 70.9 °F 84% 30.11 in 10.0 mi Calm Calm - N/A   Clear
9:35 AM 78.4 °F - 70.3 °F 76% 30.12 in 10.0 mi Calm Calm - N/A   Clear
9:55 AM 80.1 °F 83.4 °F 70.5 °F 73% 30.12 in 10.0 mi Calm Calm - N/A   Clear
10:15 AM 80.6 °F 83.9 °F 69.8 °F 70% 30.12 in 10.0 mi Calm Calm - N/A   Clear
10:35 AM 81.5 °F 84.9 °F 69.8 °F 67% 30.12 in 10.0 mi Calm Calm - N/A   Clear
10:55 AM 81.7 °F 85.4 °F 70.0 °F 68% 30.12 in 10.0 mi Calm Calm - N/A   Clear
11:15 AM 82.9 °F 87.0 °F 70.2 °F 65% 30.12 in 10.0 mi Calm Calm - N/A   Clear
11:35 AM 83.7 °F 88.6 °F 71.1 °F 66% 30.11 in 10.0 mi Calm Calm - N/A   Clear
11:55 AM 83.7 °F 88.6 °F 71.1 °F 66% 30.11 in 10.0 mi Calm Calm - N/A   Clear
12:15 PM 84.6 °F 90.0 °F 71.6 °F 65% 30.10 in 10.0 mi Calm Calm - N/A   Clear
12:35 PM 85.6 °F 91.1 °F 71.1 °F 62% 30.10 in 10.0 mi Calm Calm - N/A   Clear
12:55 PM 86.4 °F 93.0 °F 72.5 °F 63% 30.10 in 10.0 mi Calm Calm - N/A   Clear
1:15 PM 86.4 °F 92.6 °F 71.8 °F 62% 30.09 in 10.0 mi West 3.5 mph - N/A   Clear
1:35 PM 87.8 °F 95.2 °F 72.9 °F 61% 30.08 in 10.0 mi WNW 4.6 mph - N/A   Clear
1:55 PM 87.8 °F 95.6 °F 73.2 °F 62% 30.07 in 10.0 mi SW 5.8 mph - N/A   Scattered Clouds
2:15 PM 87.4 °F 94.0 °F 72.0 °F 60% 30.06 in 10.0 mi South 6.9 mph - N/A   Scattered Clouds
2:35 PM 85.5 °F 91.5 °F 72.1 °F 64% 30.05 in 10.0 mi South 5.8 mph - N/A   Scattered Clouds
2:55 PM 86.4 °F 94.2 °F 73.6 °F 66% 30.04 in 10.0 mi South 5.8 mph - N/A   Scattered Clouds
3:15 PM 86.7 °F 94.1 °F 73.0 °F 64% 30.03 in 10.0 mi SSW 8.1 mph - N/A   Clear
3:35 PM 85.5 °F 91.8 °F 72.5 °F 65% 30.03 in 10.0 mi SSW 6.9 mph - N/A   Clear
3:55 PM 84.4 °F 90.3 °F 72.1 °F 67% 30.02 in 10.0 mi Calm Calm - N/A   Clear
4:34 PM 82.4 °F 88.2 °F 73.4 °F 74% 30.04 in 10.0 mi Calm Calm - N/A   Clear
4:35 PM 81.7 °F 86.9 °F 73.2 °F 75% 30.04 in 10.0 mi Calm Calm - N/A   Clear
4:55 PM 80.6 °F 85.0 °F 72.9 °F 77% 30.03 in 10.0 mi West 3.5 mph - N/A   Clear
5:14 PM 80.6 °F 85.4 °F 73.4 °F 79% 30.03 in 10.0 mi WSW 4.6 mph - N/A Thunderstorm Clear
5:35 PM 79.3 °F - 73.2 °F 81% 30.03 in 10.0 mi Calm Calm - N/A   Scattered Clouds
5:55 PM 77.9 °F - 73.8 °F 87% 30.03 in 10.0 mi SW 4.6 mph - N/A Rain Light Rain
6:15 PM 77.0 °F - 73.0 °F 88% 30.02 in 10.0 mi SW 3.5 mph - N/A Rain Light Rain
6:35 PM 77.2 °F - 72.9 °F 86% 30.02 in 10.0 mi Calm Calm - N/A Rain Light Rain
6:55 PM 77.0 °F - 72.5 °F 86% 30.02 in 10.0 mi Calm Calm - N/A   Scattered Clouds
7:15 PM 76.6 °F - 71.6 °F 84% 30.02 in 10.0 mi Calm Calm - N/A   Clear
7:35 PM 75.7 °F - 71.1 °F 85% 30.01 in 10.0 mi Calm Calm - N/A   Clear
7:55 PM 75.4 °F - 70.5 °F 85% 30.01 in 10.0 mi Calm Calm - N/A   Scattered Clouds
8:15 PM 75.2 °F - 70.3 °F 85% 30.02 in 10.0 mi Calm Calm - N/A   Scattered Clouds
8:56 PM 73.4 °F - 71.6 °F 94% 30.02 in 10.0 mi Calm Calm - N/A   Clear
9:14 PM 73.4 °F - 71.6 °F 94% 30.03 in 10.0 mi Calm Calm - N/A   Clear
9:34 PM 73.4 °F - 71.6 °F 94% 30.03 in 10.0 mi Calm Calm - N/A   Scattered Clouds
9:54 PM 71.6 °F - 71.6 °F 100% 30.03 in 10.0 mi Calm Calm - N/A   Scattered Clouds
10:14 PM 73.4 °F - 71.6 °F 94% 30.04 in 10.0 mi Calm Calm - N/A   Scattered Clouds
10:34 PM 71.6 °F - 71.6 °F 100% 30.03 in 7.0 mi Calm Calm - N/A   Scattered Clouds
10:56 PM 71.6 °F - 69.8 °F 94% 30.03 in 5.0 mi Calm Calm - N/A   Mostly Cloudy
11:14 PM 71.6 °F - 71.6 °F 100% 30.02 in 7.0 mi Calm Calm - N/A   Scattered Clouds
11:34 PM 71.6 °F - 71.6 °F 100% 30.02 in 10.0 mi Calm Calm - N/A   Scattered Clouds
11:54 PM 71.6 °F - 69.8 °F 94% 30.01 in 7.0 mi Calm Calm - N/A   Clear